This is the latest recevied weather packets stored in our database for station/object W3JGB. If no packets are shown the sender has not sent any weather packets the latest 10 day(s).
| Time | Temp. | Humidity | Pressure | Rain* | Wind** | Luminosity | Snow |
|---|---|---|---|---|---|---|---|
| 1777501407 | 11.11° C | 99% | 1007.6 hPa | 3.05 mm | - | 6 W/m² | - |
| 1777501104 | 11.11° C | 99% | 1007.4 hPa | 3.05 mm | - | 10 W/m² | - |
| 1777500802 | 11.11° C | 99% | 1007.6 hPa | 6.1 mm | - | 6 W/m² | - |
| 1777500499 | 11.11° C | 99% | 1007.8 hPa | 9.65 mm | - | 9 W/m² | - |
| 1777500195 | 11.11° C | 99% | 1007.7 hPa | 3.05 mm | - | 6 W/m² | - |
| 1777499892 | 11.11° C | 99% | 1007.6 hPa | 0 mm | - | 4 W/m² | - |
| 1777499589 | 11.11° C | 99% | 1007.5 hPa | 0 mm | - | 6 W/m² | - |
| 1777499286 | 11.11° C | 99% | 1007.5 hPa | 1.27 mm | - | 6 W/m² | - |
| 1777498983 | 11.11° C | 99% | 1007.6 hPa | 1.27 mm | - | 8 W/m² | - |
| 1777498679 | 11.11° C | 99% | 1007.5 hPa | 0 mm | - | 6 W/m² | - |
| 1777498376 | 11.11° C | 99% | 1007.4 hPa | 0 mm | - | 4 W/m² | - |
| 1777498073 | 11.11° C | 99% | 1007.4 hPa | 0 mm | - | 6 W/m² | - |
| 1777497770 | 11.11° C | 99% | 1007.3 hPa | 0 mm | - | 7 W/m² | - |
| 1777497467 | 11.11° C | 99% | 1007.4 hPa | 0 mm | - | 5 W/m² | - |
| 1777497163 | 11.11° C | 99% | 1007.2 hPa | 1.78 mm | - | 9 W/m² | - |
| 1777496860 | 11.11° C | 99% | 1007.3 hPa | 1.78 mm | - | 11 W/m² | - |
| 1777496557 | 11.11° C | 99% | 1007.5 hPa | 0 mm | - | 12 W/m² | - |
| 1777496253 | 11.11° C | 99% | 1007.6 hPa | 0 mm | - | 20 W/m² | - |
| 1777495949 | 11.11° C | 99% | 1007.5 hPa | 0 mm | - | 29 W/m² | - |
| 1777495645 | 11.11° C | 99% | 1007.7 hPa | 0 mm | - | 21 W/m² | - |
| 1777495341 | 11.11° C | 99% | 1007.9 hPa | 0 mm | - | 15 W/m² | - |
| 1777495038 | 11.67° C | 99% | 1007.9 hPa | 0 mm | - | 13 W/m² | - |
| 1777494736 | 11.67° C | 99% | 1007.6 hPa | 0 mm | - | 14 W/m² | - |
| 1777494433 | 11.67° C | 99% | 1007.7 hPa | 0 mm | - | 17 W/m² | - |
| 1777494129 | 11.67° C | 99% | 1008.1 hPa | 0 mm | - | 23 W/m² | - |
* Rain latest hour (hover to see other rain measurements)
** Current wind speed in m/s (hover to see current wind gust speed)